SCP
0 0 0 0 0 0 0 -0 0 0 -0 0 0 0 0 0 0 0 0 -0 -0 -0 0 -0 -1 -1 -1 -0 -0 -0 -0 -0 -0 -0 -0 -0 -0 -0 -0 0 0 0 0 0 0 0 0 0 0
0 0 0 0 0 0 -0 0 0 0 0 0 0 0 0 1 0 0 0 0 -0 -0 0 0 -0 -0 -1 -0 -0 -0 -0 -0 -0 -0 -0 -0 -0 -0 0 0 0 0 0 0 0 0 0 0 0
0 0 0 0 0 0 -0 0 -0 0 0 0 0 0 0 0 1 0 0 0 0 0 0 0 -0 -0 -0 -0 -0 -0 -0 -0 -0 -0 -0 -0 0 0 0 0 0 0 0 0 0 0 0 0 0
0 0 0 0 0 0 0 0 0 0 -0 0 0 0 1 1 0 0 0 0 -0 0 0 0 -0 -0 -0 -0 -0 -0 -0 -0 -0 -0 -0 -0 0 0 0 0 -0 0 0 0 0 0 0 0 0
0 0 0 0 0 0 0 0 -0 0 -0 0 0 0 0 0 0 0 0 0 0 1 1 1 0 0 0 -0 -0 -0 -0 0 -0 -0 -0 -0 0 0 0 0 -0 -0 -0 0 0 -0 -0 -0 -0
0 0 0 0 0 0 0 0 0 0 0 0 0 0 0 -0 -0 0 0 0 0 1 1 1 1 1 0 0 0 0 0 0 0 0 0 0 -0 -0 -0 -0 -0 -0 -0 0 -0 -0 -0 -0 -0
0 0 0 0 0 0 0 -0 0 0 0 0 0 0 0 0 -0 -0 0 0 1 1 1 1 1 1 1 1 1 0 0 0 0 0 0 0 0 -0 -0 -0 -0 -0 -0 -0 -0 -0 -0 -0 -0
0 0 0 0 0 0 -0 -0 0 0 0 0 0 0 0 0 0 -0 0 0 1 2 1 1 2 2 2 1 1 1 1 0 0 0 0 0 0 0 -0 0 0 0 0 0 0 0 -0 -0 -0
0 0 0 0 0 0 0 0 0 0 0 0 0 -0 -0 0 0 0 0 0 3 3 1 1 1 1 1 1 1 1 1 1 1 1 1 0 0 0 -0 0 0 0 0 0 0 0 0 0 -0
0 0 0 0 0 0 0 -0 0 0 0 0 0 0 0 0 0 0 0 0 0 1 1 1 1 1 1 1 1 1 1 1 1 1 1 1 0 0 0 0 0 0 0 0 0 0 0 0 0
0 0 0 0 0 0 0 0 0 0 0 0 0 0 0 0 0 0 0 0 0 0 2 1 1 1 0 1 2 1 1 1 1 1 1 1 0 0 0 0 0 0 0 0 0 0 0 0 0
0 0 0 0 0 0 0 0 0 0 0 0 0 0 0 0 0 0 0 0 0 0 1 3 1 1 -0 0 2 2 1 1 1 1 1 1 1 0 0 0 0 0 0 0 0 0 0 0 0
0 0 0 0 -0 -0 0 0 0 0 0 0 0 0 0 0 0 0 0 0 0 0 1 3 4 2 0 1 2 1 1 2 2 2 1 2 1 1 0 0 0 0 0 0 0 0 0 0 0
0 0 0 0 0 0 0 0 0 0 0 0 0 0 0 0 0 0 0 0 0 0 -0 2 2 1 0 1 2 1 1 1 1 2 1 2 1 1 1 0 0 0 0 0 0 0 0 0 0
0 0 0 0 0 0 0 0 0 0 0 0 0 0 0 0 0 0 0 0 0 0 0 -1 -0 0 0 0 3 3 1 1 1 1 1 1 1 1 1 1 1 1 0 0 0 0 0 0 0
0 0 0 0 0 0 0 0 0 0 0 0 0 0 0 0 0 0 0 0 0 0 0 0 0 1 1 2 1 3 4 2 2 1 1 1 1 1 1 1 1 1 0 0 0 0 0 0 0
0 0 0 0 -0 0 0 0 -0 0 0 0 0 0 0 0 0 0 0 0 0 0 0 0 0 0 1 3 4 3 3 5 4 2 2 2 2 2 2 2 1 1 0 0 0 0 0 0 0
0 -0 0 0 -0 -0 0 0 0 0 0 0 0 0 0 0 0 0 0 0 0 0 0 0 0 0 0 0 3 5 5 4 5 5 4 2 2 2 3 3 2 1 1 0 0 1 0 0 0
-0 0 -0 0 0 0 0 0 0 0 0 0 0 0 0 0 0 0 0 0 0 0 0 0 0 0 0 0 0 4 4 4 4 4 4 2 4 2 2 5 3 2 1 1 1 0 1 0 1
0 0 0 0 0 0 0 0 0 0 0 0 0 0 0 0 0 0 0 0 0 0 0 0 0 0 1 0 1 2 2 3 4 4 3 3 3 4 3 3 5 3 3 1 1 1 1 1 0
0 0 0 0 0 0 0 0 0 0 0 0 -0 0 0 0 0 0 0 0 0 0 0 0 0 0 0 0 0 0 0 2 3 2 3 3 4 4 5 4 4 4 3 2 1 2 1 1 1
0 0 0 0 0 0 0 0 0 -0 0 0 0 0 0 0 0 0 0 0 0 0 0 0 0 0 0 0 0 0 -0 0 0 2 2 2 3 3 3 5 4 4 4 3 2 2 2 1 1
0 0 0 0 0 0 0 0 0 0 0 0 0 0 0 0 0 0 0 0 0 0 0 0 0 0 0 0 0 0 0 0 0 0 1 2 3 3 3 4 4 5 4 3 2 1 3 2 1
0 0 0 0 0 0 0 0 0 0 0 0 0 0 0 0 0 0 0 0 0 0 0 0 0 0 0 0 0 0 -0 0 -0 0 0 1 3 3 3 4 4 4 4 3 3 3 2 3 2
0 0 0 0 0 0 0 0 0 0 0 0 0 0 0 0 0 0 0 0 0 0 0 0 0 0 0 0 0 0 0 0 0 0 0 1 2 3 3 3 4 5 5 4 5 5 4 3 4
0 0 0 0 0 0 0 0 0 0 0 0 0 0 0 0 0 0 0 0 0 0 0 0 0 0 0 0 0 0 0 0 0 0 1 0 1 2 3 3 3 3 4 5 5 6 7 6 6
0 0 0 0 0 0 0 0 0 0 0 0 0 0 0 -0 -0 -0 0 0 0 0 0 0 0 0 0 0 0 0 0 0 -0 -0 -0 0 0 1 1 1 1 1 2 2 2 0 0 0 4
0 0 0 0 0 0 0 0 0 0 0 0 0 0 0 0 0 0 0 0 0 0 0 0 0 0 0 0 0 0 0 0 0 -0 -0 0 0 0 0 0 0 0 0 0 0 0 0 0 0
0 0 0 0 0 0 0 0 0 0 0 0 0 0 0 0 0 0 0 0 0 0 0 0 0 0 0 0 0 0 0 0 0 -0 -0 -0 -0 -0 0 0 0 0 0 0 0 0 0 0 -0
0 0 0 0 0 0 0 0 0 -0 0 0 0 0 0 0 0 0 0 0 0 0 0 0 0 0 0 0 0 0 0 0 0 0 -0 -0 -0 -0 0 0 0 0 0 0 0 0 0 0 0
Wind_Speed_500mb
20 20 25 32 1 4 13 21 21 30 30 25 26 23 35 37 12 14 31 28 30 41 51 52 49 50 50 47 40 39 37 36 35 31 28 26 29 33 36 36 35 33 28 24 22 21 22 21 19
21 21 25 12 5 7 14 32 38 4 29 19 15 44 41 29 51 42 35 29 19 34 49 53 50 49 48 46 40 40 37 35 33 30 27 27 30 33 35 34 32 29 24 21 19 19 19 18 16
27 19 9 5 8 19 16 28 5 14 20 32 7 40 13 18 25 22 26 30 21 38 48 52 51 49 47 44 39 38 34 34 32 29 25 26 30 31 32 31 28 24 20 19 18 18 17 17 15
16 9 14 4 20 30 41 35 43 17 35 11 15 16 18 17 20 35 32 28 24 38 46 50 50 48 48 44 39 38 35 32 31 29 25 24 27 29 29 28 25 21 19 18 16 16 15 15 14
28 15 7 9 21 27 37 41 22 17 24 6 41 15 24 35 41 46 29 16 8 41 43 47 48 47 45 43 41 37 35 33 31 29 27 24 26 27 28 27 24 21 19 17 15 14 15 14 12
16 16 4 15 31 35 33 49 17 24 16 9 39 36 31 26 34 36 24 8 7 19 35 43 44 45 43 41 38 36 35 34 34 30 29 26 26 27 27 26 25 23 22 19 18 16 15 13 11
21 7 12 17 31 25 28 36 17 4 9 17 43 22 27 33 24 26 23 21 17 12 17 26 40 43 42 40 39 36 35 35 35 36 31 27 26 27 27 26 25 24 23 22 20 18 16 14 11
40 6 18 24 30 28 36 42 42 9 9 21 21 8 9 22 20 19 23 31 24 23 16 14 31 42 44 43 41 39 37 38 38 38 37 32 27 26 27 27 26 26 25 24 22 20 17 15 12
56 16 22 32 30 29 4 19 55 26 6 14 14 39 34 9 10 9 17 39 45 33 25 18 10 39 43 43 42 40 38 39 40 43 43 41 36 30 30 30 29 29 29 28 26 24 21 17 14
23 22 30 25 27 22 32 24 29 40 5 7 14 30 10 10 8 11 6 8 28 38 34 29 22 19 38 42 43 43 43 45 45 49 51 47 42 36 33 33 35 35 34 32 29 26 23 19 16
34 28 21 44 58 55 30 7 37 18 9 16 22 10 3 10 7 10 15 12 6 31 38 32 36 25 19 26 42 49 46 48 50 52 54 51 50 46 43 41 42 41 40 37 34 31 27 23 21
19 40 48 43 55 52 11 28 43 22 22 29 17 22 17 9 15 14 16 19 20 22 47 60 34 28 19 13 30 37 43 52 55 58 59 59 57 55 51 49 47 47 46 42 40 36 32 29 27
31 29 56 60 60 51 13 14 15 23 35 31 25 20 16 8 10 26 28 33 38 29 11 38 59 48 43 30 43 49 49 50 50 62 63 63 64 62 58 56 53 50 48 49 47 43 39 37 34
34 46 43 57 60 47 17 12 16 25 31 35 29 19 16 14 17 19 24 32 45 33 12 27 35 38 33 61 57 48 49 58 50 50 66 68 68 69 70 67 63 58 57 50 54 50 47 44 40
53 13 24 24 19 14 10 9 16 43 44 45 38 30 31 28 28 27 19 15 24 28 22 11 12 29 43 66 59 48 52 56 53 50 48 52 66 70 73 75 74 70 65 55 53 58 53 55 49
12 3 9 15 16 21 23 15 20 48 58 46 49 37 31 34 36 36 30 22 12 16 12 9 17 6 27 53 65 63 65 59 53 54 56 58 55 62 72 77 81 77 72 70 65 64 62 60 59
1 8 10 20 24 19 16 9 25 35 28 27 38 36 30 30 36 36 33 29 35 22 14 23 26 10 7 31 55 62 63 64 67 67 63 64 71 69 68 79 84 84 82 72 72 73 70 69 67
14 17 17 22 35 33 18 16 18 23 32 41 41 42 40 38 37 35 31 34 30 32 27 28 36 39 39 28 37 51 58 67 72 76 77 77 80 77 77 78 85 85 87 86 76 78 74 76 72
14 15 17 9 7 26 19 13 15 10 12 13 37 44 53 41 33 30 33 27 29 33 37 38 33 37 30 38 32 44 59 63 69 72 80 79 74 81 81 85 85 91 90 94 88 86 88 87 82
24 10 11 13 12 5 8 10 3 7 14 30 25 23 21 15 12 14 6 13 18 16 9 3 3 6 10 15 21 27 41 63 72 73 74 77 89 94 88 90 92 96 99 100 100 101 97 94 84
3 6 12 12 14 13 6 9 9 17 24 43 44 43 41 21 42 42 33 27 22 20 18 22 23 25 30 23 17 22 30 44 57 75 78 76 81 90 103 102 102 100 102 107 105 105 100 99 88
9 13 17 21 5 3 10 7 10 17 17 29 9 42 43 42 37 25 26 25 25 23 16 15 22 28 34 38 40 43 42 47 58 66 77 80 84 89 96 103 107 103 101 107 115 106 107 100 94
13 13 15 13 14 13 18 7 14 18 22 20 17 43 36 33 29 25 18 17 13 13 15 16 23 26 36 40 44 48 56 60 63 71 80 80 88 93 97 106 109 110 107 110 111 116 124 115 100
12 11 15 9 3 4 30 12 15 20 19 13 22 32 30 27 21 14 8 5 16 25 26 29 36 42 40 44 47 55 61 69 72 77 83 86 89 96 99 100 106 114 111 109 112 114 116 113 109
5 11 3 7 2 13 3 6 15 8 18 22 17 34 28 19 14 7 8 13 25 31 35 39 38 44 41 46 46 47 56 63 63 80 78 80 90 95 100 102 102 112 119 117 116 108 111 117 124
3 11 8 8 5 9 7 12 8 14 33 41 34 23 13 8 3 9 15 26 33 31 29 33 39 39 48 52 52 49 55 60 65 71 70 72 83 92 95 102 108 107 117 127 118 122 112 123 117
8 6 8 1 9 3 8 11 11 32 20 21 16 15 19 17 15 17 32 35 33 32 37 40 47 53 51 58 59 55 52 59 64 74 73 70 74 85 93 95 102 99 100 114 113 74 87 92 101
4 8 5 6 5 7 9 9 11 8 10 11 5 8 7 11 21 24 6 8 20 30 36 39 39 43 46 47 48 55 57 55 57 67 79 73 70 74 85 87 89 101 99 105 106 105 78 104 101
10 8 6 9 10 8 2 7 18 8 13 10 11 16 22 29 12 10 20 29 35 29 34 42 47 45 43 47 53 52 51 55 62 65 74 77 67 69 68 75 82 92 96 86 61 66 47 34 106
18 11 9 9 9 5 8 17 23 8 12 17 28 33 25 9 19 31 33 32 32 36 34 35 41 40 33 33 31 41 54 62 60 61 65 75 73 71 64 73 71 78 73 71 59 76 64 66 82
Wind_Direction_500mb
256 250 298 308 35 193 246 254 275 282 267 28 70 51 74 48 87 139 144 165 151 161 163 160 160 158 156 155 151 150 150 149 147 144 145 141 135 137 140 140 139 137 136 131 122 121 122 121 115
262 278 297 270 171 254 261 256 256 10 327 27 43 87 68 66 93 123 147 144 144 170 167 160 161 159 158 159 155 155 155 154 152 148 147 143 140 140 141 141 140 139 136 129 126 127 129 126 119
271 281 298 217 204 237 252 259 102 166 255 321 360 80 59 105 91 133 166 153 160 175 170 162 162 161 161 162 160 162 160 160 158 154 150 149 148 149 149 148 148 145 141 136 137 137 137 133 129
282 278 247 220 254 255 245 262 273 83 261 265 49 75 60 66 107 144 162 155 167 179 171 165 164 164 164 165 166 168 167 168 168 163 159 156 157 158 159 158 158 158 153 150 150 147 146 142 137
254 265 237 237 252 259 263 278 277 139 242 117 100 97 99 89 106 139 164 159 179 171 172 170 167 168 169 171 172 174 176 174 177 176 171 166 168 169 171 171 171 170 166 163 161 164 162 160 159
235 218 243 224 255 262 268 262 96 258 353 72 107 99 106 112 110 136 160 185 202 145 161 173 173 174 175 177 180 182 186 185 183 189 187 181 179 181 182 182 182 180 179 176 175 179 180 179 177
209 249 237 236 259 266 260 276 144 293 319 36 116 103 100 102 111 136 161 172 193 175 162 176 182 181 182 184 187 192 194 196 195 193 198 198 194 194 192 192 193 192 189 188 189 191 192 192 196
223 204 257 249 252 257 265 295 207 280 272 64 120 146 105 111 115 154 169 180 202 199 189 189 197 191 188 190 194 197 200 200 203 203 201 205 211 207 207 204 204 204 201 201 201 201 201 204 204
219 233 237 246 248 261 259 38 290 296 310 64 339 113 119 67 7 154 176 180 187 198 206 206 209 204 198 197 199 201 203 204 204 207 207 210 211 216 217 215 214 215 213 210 209 210 210 211 211
212 222 234 251 259 260 297 340 260 304 301 327 272 286 254 164 226 211 189 183 163 194 209 216 219 199 211 206 207 207 205 206 208 207 208 211 217 221 225 227 223 221 220 219 218 218 219 219 218
245 230 227 244 260 268 270 57 304 354 315 273 357 319 220 348 106 218 241 250 201 190 205 258 208 192 184 223 216 217 215 213 211 212 213 216 220 222 226 226 229 226 223 223 225 224 224 224 224
232 236 238 252 242 250 215 180 221 281 277 307 321 311 328 316 282 279 301 275 278 262 225 207 198 159 162 242 235 222 226 225 223 219 217 219 223 227 228 228 226 228 228 227 226 227 229 230 230
221 234 229 247 259 263 169 171 208 249 272 285 300 300 290 295 298 281 275 276 281 299 249 206 200 209 256 208 245 231 234 237 243 232 228 223 225 227 229 231 230 229 229 227 228 229 229 231 233
225 223 235 228 244 244 179 200 216 244 256 260 265 290 280 285 274 279 275 272 272 274 337 211 233 226 245 217 228 238 239 241 244 240 234 236 230 227 225 228 229 231 228 228 228 228 229 230 230
237 229 228 251 263 230 235 239 225 241 239 239 244 250 267 260 253 261 264 280 278 278 257 92 206 225 224 212 225 240 240 237 245 250 241 238 241 235 227 224 228 229 227 222 226 223 227 230 229
216 173 192 274 245 242 185 250 244 243 231 218 218 218 217 238 251 255 265 271 318 245 207 184 107 120 224 225 216 220 232 239 243 249 251 248 248 245 234 228 227 231 227 227 227 221 218 227 230
287 230 239 255 233 208 156 190 241 261 180 172 186 204 214 230 234 232 254 272 266 278 272 259 266 277 155 228 240 236 232 241 244 243 245 249 250 248 242 234 229 230 227 226 227 221 221 221 224
210 207 241 231 241 194 183 196 240 215 174 185 200 213 221 230 245 241 246 238 255 271 271 276 283 287 282 274 245 251 246 241 244 246 241 245 244 241 243 244 237 232 231 225 223 224 224 228 228
258 260 231 296 248 155 183 197 215 277 301 209 211 222 226 221 234 247 242 227 228 233 257 277 282 285 281 281 282 263 259 256 250 250 248 242 249 249 242 242 242 237 234 233 224 225 225 224 231
248 285 322 327 344 101 178 206 214 311 278 272 263 251 248 209 165 115 89 95 98 86 82 140 229 303 318 326 313 292 282 273 265 262 260 252 246 247 246 244 245 244 239 235 232 228 230 233 233
13 344 312 296 313 349 83 348 317 272 257 253 252 243 237 138 89 82 74 64 46 24 1 347 338 325 314 311 312 302 287 285 283 269 264 256 253 248 247 248 247 244 242 239 235 232 230 234 232
321 263 257 259 359 276 41 276 289 274 263 235 242 102 96 87 82 69 55 41 29 16 5 349 337 323 316 315 312 310 303 291 287 290 280 267 259 254 250 249 252 249 245 241 237 234 233 230 227
234 58 32 10 5 28 323 350 267 261 261 92 87 87 87 82 75 65 48 27 0 352 351 324 327 325 326 323 315 312 307 306 295 282 287 282 267 257 254 251 250 253 248 243 238 238 232 227 229
82 53 13 346 355 332 249 204 266 263 147 120 101 95 89 86 83 69 50 349 339 327 324 323 305 304 310 315 311 305 303 307 309 313 281 279 277 267 259 251 249 251 250 248 243 236 233 229 226
121 86 344 332 251 219 321 292 231 187 122 124 117 102 96 96 73 9 307 307 303 299 299 299 297 296 292 291 296 301 297 300 308 310 299 284 280 276 264 258 249 249 252 249 247 237 235 230 225
339 126 141 236 239 286 308 205 242 145 105 96 99 105 128 141 197 283 272 301 295 287 294 291 294 300 302 294 297 303 301 302 307 308 309 294 280 274 274 265 258 252 253 255 249 246 240 234 226
2 58 126 297 250 321 255 301 351 109 103 112 141 176 199 206 236 264 283 277 266 277 277 278 287 293 291 286 288 290 301 299 305 306 310 301 292 281 272 270 262 260 254 253 252 244 296 273 233
282 299 34 346 4 272 272 260 126 90 100 84 31 305 290 271 272 260 273 286 289 281 281 284 283 284 285 278 280 286 291 299 305 309 309 309 305 294 276 272 270 263 262 261 259 265 269 272 289
280 236 198 165 150 201 320 269 123 133 152 186 234 245 253 262 255 294 300 302 298 296 302 304 304 301 296 286 288 288 284 291 294 303 305 307 310 301 295 280 277 267 261 260 272 268 242 316 272
233 236 197 150 258 251 186 249 334 320 228 211 235 236 257 352 35 33 16 359 347 338 325 319 310 308 303 302 303 303 293 288 291 297 299 304 310 313 299 288 282 267 263 261 249 247 247 253 307
Wind_Speed_850mb
20 20 25 32 1 4 13 21 21 30 30 25 26 23 35 37 12 14 31 28 30 41 51 52 49 50 50 47 40 39 37 36 35 31 28 26 29 33 36 36 35 33 28 24 22 21 22 21 19
21 21 25 12 5 7 14 32 38 4 29 19 15 44 41 29 51 42 35 29 19 34 49 53 50 49 48 46 40 40 37 35 33 30 27 27 30 33 35 34 32 29 24 21 19 19 19 18 16
27 19 9 5 8 19 16 28 5 14 20 32 7 40 13 18 25 22 26 30 21 38 48 52 51 49 47 44 39 38 34 34 32 29 25 26 30 31 32 31 28 24 20 19 18 18 17 17 15
16 9 14 4 20 30 41 35 43 17 35 11 15 16 18 17 20 35 32 28 24 38 46 50 50 48 48 44 39 38 35 32 31 29 25 24 27 29 29 28 25 21 19 18 16 16 15 15 14
28 15 7 9 21 27 37 41 22 17 24 6 41 15 24 35 41 46 29 16 8 41 43 47 48 47 45 43 41 37 35 33 31 29 27 24 26 27 28 27 24 21 19 17 15 14 15 14 12
16 16 4 15 31 35 33 49 17 24 16 9 39 36 31 26 34 36 24 8 7 19 35 43 44 45 43 41 38 36 35 34 34 30 29 26 26 27 27 26 25 23 22 19 18 16 15 13 11
21 7 12 17 31 25 28 36 17 4 9 17 43 22 27 33 24 26 23 21 17 12 17 26 40 43 42 40 39 36 35 35 35 36 31 27 26 27 27 26 25 24 23 22 20 18 16 14 11
40 6 18 24 30 28 36 42 42 9 9 21 21 8 9 22 20 19 23 31 24 23 16 14 31 42 44 43 41 39 37 38 38 38 37 32 27 26 27 27 26 26 25 24 22 20 17 15 12
56 16 22 32 30 29 4 19 55 26 6 14 14 39 34 9 10 9 17 39 45 33 25 18 10 39 43 43 42 40 38 39 40 43 43 41 36 30 30 30 29 29 29 28 26 24 21 17 14
23 22 30 25 27 22 32 24 29 40 5 7 14 30 10 10 8 11 6 8 28 38 34 29 22 19 38 42 43 43 43 45 45 49 51 47 42 36 33 33 35 35 34 32 29 26 23 19 16
34 28 21 44 58 55 30 7 37 18 9 16 22 10 3 10 7 10 15 12 6 31 38 32 36 25 19 26 42 49 46 48 50 52 54 51 50 46 43 41 42 41 40 37 34 31 27 23 21
19 40 48 43 55 52 11 28 43 22 22 29 17 22 17 9 15 14 16 19 20 22 47 60 34 28 19 13 30 37 43 52 55 58 59 59 57 55 51 49 47 47 46 42 40 36 32 29 27
31 29 56 60 60 51 13 14 15 23 35 31 25 20 16 8 10 26 28 33 38 29 11 38 59 48 43 30 43 49 49 50 50 62 63 63 64 62 58 56 53 50 48 49 47 43 39 37 34
34 46 43 57 60 47 17 12 16 25 31 35 29 19 16 14 17 19 24 32 45 33 12 27 35 38 33 61 57 48 49 58 50 50 66 68 68 69 70 67 63 58 57 50 54 50 47 44 40
53 13 24 24 19 14 10 9 16 43 44 45 38 30 31 28 28 27 19 15 24 28 22 11 12 29 43 66 59 48 52 56 53 50 48 52 66 70 73 75 74 70 65 55 53 58 53 55 49
12 3 9 15 16 21 23 15 20 48 58 46 49 37 31 34 36 36 30 22 12 16 12 9 17 6 27 53 65 63 65 59 53 54 56 58 55 62 72 77 81 77 72 70 65 64 62 60 59
1 8 10 20 24 19 16 9 25 35 28 27 38 36 30 30 36 36 33 29 35 22 14 23 26 10 7 31 55 62 63 64 67 67 63 64 71 69 68 79 84 84 82 72 72 73 70 69 67
14 17 17 22 35 33 18 16 18 23 32 41 41 42 40 38 37 35 31 34 30 32 27 28 36 39 39 28 37 51 58 67 72 76 77 77 80 77 77 78 85 85 87 86 76 78 74 76 72
14 15 17 9 7 26 19 13 15 10 12 13 37 44 53 41 33 30 33 27 29 33 37 38 33 37 30 38 32 44 59 63 69 72 80 79 74 81 81 85 85 91 90 94 88 86 88 87 82
24 10 11 13 12 5 8 10 3 7 14 30 25 23 21 15 12 14 6 13 18 16 9 3 3 6 10 15 21 27 41 63 72 73 74 77 89 94 88 90 92 96 99 100 100 101 97 94 84
3 6 12 12 14 13 6 9 9 17 24 43 44 43 41 21 42 42 33 27 22 20 18 22 23 25 30 23 17 22 30 44 57 75 78 76 81 90 103 102 102 100 102 107 105 105 100 99 88
9 13 17 21 5 3 10 7 10 17 17 29 9 42 43 42 37 25 26 25 25 23 16 15 22 28 34 38 40 43 42 47 58 66 77 80 84 89 96 103 107 103 101 107 115 106 107 100 94
13 13 15 13 14 13 18 7 14 18 22 20 17 43 36 33 29 25 18 17 13 13 15 16 23 26 36 40 44 48 56 60 63 71 80 80 88 93 97 106 109 110 107 110 111 116 124 115 100
12 11 15 9 3 4 30 12 15 20 19 13 22 32 30 27 21 14 8 5 16 25 26 29 36 42 40 44 47 55 61 69 72 77 83 86 89 96 99 100 106 114 111 109 112 114 116 113 109
5 11 3 7 2 13 3 6 15 8 18 22 17 34 28 19 14 7 8 13 25 31 35 39 38 44 41 46 46 47 56 63 63 80 78 80 90 95 100 102 102 112 119 117 116 108 111 117 124
3 11 8 8 5 9 7 12 8 14 33 41 34 23 13 8 3 9 15 26 33 31 29 33 39 39 48 52 52 49 55 60 65 71 70 72 83 92 95 102 108 107 117 127 118 122 112 123 117
8 6 8 1 9 3 8 11 11 32 20 21 16 15 19 17 15 17 32 35 33 32 37 40 47 53 51 58 59 55 52 59 64 74 73 70 74 85 93 95 102 99 100 114 113 74 87 92 101
4 8 5 6 5 7 9 9 11 8 10 11 5 8 7 11 21 24 6 8 20 30 36 39 39 43 46 47 48 55 57 55 57 67 79 73 70 74 85 87 89 101 99 105 106 105 78 104 101
10 8 6 9 10 8 2 7 18 8 13 10 11 16 22 29 12 10 20 29 35 29 34 42 47 45 43 47 53 52 51 55 62 65 74 77 67 69 68 75 82 92 96 86 61 66 47 34 106
18 11 9 9 9 5 8 17 23 8 12 17 28 33 25 9 19 31 33 32 32 36 34 35 41 40 33 33 31 41 54 62 60 61 65 75 73 71 64 73 71 78 73 71 59 76 64 66 82
Wind_Direction_850mb
256 250 298 308 35 193 246 254 275 282 267 28 70 51 74 48 87 139 144 165 151 161 163 160 160 158 156 155 151 150 150 149 147 144 145 141 135 137 140 140 139 137 136 131 122 121 122 121 115
262 278 297 270 171 254 261 256 256 10 327 27 43 87 68 66 93 123 147 144 144 170 167 160 161 159 158 159 155 155 155 154 152 148 147 143 140 140 141 141 140 139 136 129 126 127 129 126 119
271 281 298 217 204 237 252 259 102 166 255 321 360 80 59 105 91 133 166 153 160 175 170 162 162 161 161 162 160 162 160 160 158 154 150 149 148 149 149 148 148 145 141 136 137 137 137 133 129
282 278 247 220 254 255 245 262 273 83 261 265 49 75 60 66 107 144 162 155 167 179 171 165 164 164 164 165 166 168 167 168 168 163 159 156 157 158 159 158 158 158 153 150 150 147 146 142 137
254 265 237 237 252 259 263 278 277 139 242 117 100 97 99 89 106 139 164 159 179 171 172 170 167 168 169 171 172 174 176 174 177 176 171 166 168 169 171 171 171 170 166 163 161 164 162 160 159
235 218 243 224 255 262 268 262 96 258 353 72 107 99 106 112 110 136 160 185 202 145 161 173 173 174 175 177 180 182 186 185 183 189 187 181 179 181 182 182 182 180 179 176 175 179 180 179 177
209 249 237 236 259 266 260 276 144 293 319 36 116 103 100 102 111 136 161 172 193 175 162 176 182 181 182 184 187 192 194 196 195 193 198 198 194 194 192 192 193 192 189 188 189 191 192 192 196
223 204 257 249 252 257 265 295 207 280 272 64 120 146 105 111 115 154 169 180 202 199 189 189 197 191 188 190 194 197 200 200 203 203 201 205 211 207 207 204 204 204 201 201 201 201 201 204 204
219 233 237 246 248 261 259 38 290 296 310 64 339 113 119 67 7 154 176 180 187 198 206 206 209 204 198 197 199 201 203 204 204 207 207 210 211 216 217 215 214 215 213 210 209 210 210 211 211
212 222 234 251 259 260 297 340 260 304 301 327 272 286 254 164 226 211 189 183 163 194 209 216 219 199 211 206 207 207 205 206 208 207 208 211 217 221 225 227 223 221 220 219 218 218 219 219 218
245 230 227 244 260 268 270 57 304 354 315 273 357 319 220 348 106 218 241 250 201 190 205 258 208 192 184 223 216 217 215 213 211 212 213 216 220 222 226 226 229 226 223 223 225 224 224 224 224
232 236 238 252 242 250 215 180 221 281 277 307 321 311 328 316 282 279 301 275 278 262 225 207 198 159 162 242 235 222 226 225 223 219 217 219 223 227 228 228 226 228 228 227 226 227 229 230 230
221 234 229 247 259 263 169 171 208 249 272 285 300 300 290 295 298 281 275 276 281 299 249 206 200 209 256 208 245 231 234 237 243 232 228 223 225 227 229 231 230 229 229 227 228 229 229 231 233
225 223 235 228 244 244 179 200 216 244 256 260 265 290 280 285 274 279 275 272 272 274 337 211 233 226 245 217 228 238 239 241 244 240 234 236 230 227 225 228 229 231 228 228 228 228 229 230 230
237 229 228 251 263 230 235 239 225 241 239 239 244 250 267 260 253 261 264 280 278 278 257 92 206 225 224 212 225 240 240 237 245 250 241 238 241 235 227 224 228 229 227 222 226 223 227 230 229
216 173 192 274 245 242 185 250 244 243 231 218 218 218 217 238 251 255 265 271 318 245 207 184 107 120 224 225 216 220 232 239 243 249 251 248 248 245 234 228 227 231 227 227 227 221 218 227 230
287 230 239 255 233 208 156 190 241 261 180 172 186 204 214 230 234 232 254 272 266 278 272 259 266 277 155 228 240 236 232 241 244 243 245 249 250 248 242 234 229 230 227 226 227 221 221 221 224
210 207 241 231 241 194 183 196 240 215 174 185 200 213 221 230 245 241 246 238 255 271 271 276 283 287 282 274 245 251 246 241 244 246 241 245 244 241 243 244 237 232 231 225 223 224 224 228 228
258 260 231 296 248 155 183 197 215 277 301 209 211 222 226 221 234 247 242 227 228 233 257 277 282 285 281 281 282 263 259 256 250 250 248 242 249 249 242 242 242 237 234 233 224 225 225 224 231
248 285 322 327 344 101 178 206 214 311 278 272 263 251 248 209 165 115 89 95 98 86 82 140 229 303 318 326 313 292 282 273 265 262 260 252 246 247 246 244 245 244 239 235 232 228 230 233 233
13 344 312 296 313 349 83 348 317 272 257 253 252 243 237 138 89 82 74 64 46 24 1 347 338 325 314 311 312 302 287 285 283 269 264 256 253 248 247 248 247 244 242 239 235 232 230 234 232
321 263 257 259 359 276 41 276 289 274 263 235 242 102 96 87 82 69 55 41 29 16 5 349 337 323 316 315 312 310 303 291 287 290 280 267 259 254 250 249 252 249 245 241 237 234 233 230 227
234 58 32 10 5 28 323 350 267 261 261 92 87 87 87 82 75 65 48 27 0 352 351 324 327 325 326 323 315 312 307 306 295 282 287 282 267 257 254 251 250 253 248 243 238 238 232 227 229
82 53 13 346 355 332 249 204 266 263 147 120 101 95 89 86 83 69 50 349 339 327 324 323 305 304 310 315 311 305 303 307 309 313 281 279 277 267 259 251 249 251 250 248 243 236 233 229 226
121 86 344 332 251 219 321 292 231 187 122 124 117 102 96 96 73 9 307 307 303 299 299 299 297 296 292 291 296 301 297 300 308 310 299 284 280 276 264 258 249 249 252 249 247 237 235 230 225
339 126 141 236 239 286 308 205 242 145 105 96 99 105 128 141 197 283 272 301 295 287 294 291 294 300 302 294 297 303 301 302 307 308 309 294 280 274 274 265 258 252 253 255 249 246 240 234 226
2 58 126 297 250 321 255 301 351 109 103 112 141 176 199 206 236 264 283 277 266 277 277 278 287 293 291 286 288 290 301 299 305 306 310 301 292 281 272 270 262 260 254 253 252 244 296 273 233
282 299 34 346 4 272 272 260 126 90 100 84 31 305 290 271 272 260 273 286 289 281 281 284 283 284 285 278 280 286 291 299 305 309 309 309 305 294 276 272 270 263 262 261 259 265 269 272 289
280 236 198 165 150 201 320 269 123 133 152 186 234 245 253 262 255 294 300 302 298 296 302 304 304 301 296 286 288 288 284 291 294 303 305 307 310 301 295 280 277 267 261 260 272 268 242 316 272
233 236 197 150 258 251 186 249 334 320 228 211 235 236 257 352 35 33 16 359 347 338 325 319 310 308 303 302 303 303 293 288 291 297 299 304 310 313 299 288 282 267 263 261 249 247 247 253 307